DMSP 5D-2 F9 DEB, 39046

Orbit data source: Space-Track

DMSP 5D-2 F9 DEB, 39046 is space debris in SSO originally from a launch on Wed, 03 Feb 1988 UTC launched from the Air Force Western Test Range (AFWTR). Debris objects in space refer to the collection of defunct objects orbiting the Earth. Examples of debris include non-operational satellites, rocket bodies, and fragments generated from explosions, collisions, or faulty payload assembly.

Loading next visibility...
Identifier
39046, 1988-006M
Orbit
SSO
Country
Flag of USUS
Related business
Manufacturer
Unknown
Mission
Spacecraft
Bus & Motor
Unknown
Mass
Unknown
Launch date (UTC)
1988-02-03 (38 years ago)
Launch vehicle
Unknown
Launch site
Air Force Western Test Range (AFWTR)
Object type
Payload
Rocket body
Debris
Shape & HBR
Unknown shape, 0.1 m
Radar Cross Section
Small (<0.1 m²)

Expand to show TLE details & history
Last TLE update: 2 days ago

TLE from 2 days ago
0 DMSP 5D-2 F9 DEB
1 39046U 88006M   26171.45939220  .00001315  00000-0  54153-3 0  9996
2 39046  98.6329 352.0654 0067787 301.9111  86.8788 14.27365171696684
Epoch: 2026-06-20T11:01Z
TLE epoch observation values (Epoch: 2026-06-20T11:01:31.486Z)
Latitude
29.24704°
Longitude
-86.84042°
Altitude
801.87 km
Speed
7.456 km/s
True Right ascension
23h 08m 51s
True Declination
29° 06' 06"
Sunlit
Object was in daylight at epoch
Visualization orbit readout
Latitude
Unknown
Longitude
Unknown
Altitude
Unknown
Speed
Unknown
Apparent Right ascension
Unknown
Apparent Declination
Unknown
Sunlit
N/A
Visualization observer readout
Local Sidereal Time
23:20:07
Azimuth
Unknown
Elevation
Unknown
Doppler factor
Unknown
Orbital elements
Apogee altitude
846.339 km
Perigee altitude
749.054 km
Semi-major axis
7,175.833 km
Eccentricity
0.00678
Inclination
98.6329°
RAAN
352.0654°
Arg. of periapsis
301.9111°
True anomaly
87.65476°
Mean anomaly
86.8788°
Eccentric anomaly
87.26675°
Mean motion
3.57055 °/min
Orbital period
100.82 mins
BSTAR
0.00054153
Loading maneuver chart data...
Computing Atmospheric mass density...

Documentation

Showing up to 5 results
|